This is the latest recevied weather packets stored in our database for station/object KD5BIG-13. If no packets are shown the sender has not sent any weather packets the latest 10 day(s).
| Time | Temp. | Humidity | Pressure | Rain* | Wind** | Luminosity | Snow |
|---|---|---|---|---|---|---|---|
| 1777839593 | 25° C | 43% | 1023.9 hPa | 0 mm | - | 843 W/m² | - |
| 1777839290 | 25° C | 41% | 1023.9 hPa | 0 mm | - | 850 W/m² | - |
| 1777838987 | 25° C | 43% | 1024 hPa | 0 mm | - | 871 W/m² | - |
| 1777838683 | 25° C | 41% | 1024 hPa | 0 mm | - | 878 W/m² | - |
| 1777838380 | 25° C | 46% | 1024.3 hPa | 0 mm | - | 895 W/m² | - |
| 1777838078 | 24.44° C | 41% | 1024.3 hPa | 0 mm | - | 904 W/m² | - |
| 1777837774 | 25° C | 45% | 1024.4 hPa | 0 mm | - | 915 W/m² | - |
| 1777837471 | 24.44° C | 42% | 1024.4 hPa | 0 mm | - | 938 W/m² | - |
| 1777837166 | 25° C | 39% | 1024.6 hPa | 0 mm | - | 946 W/m² | - |
| 1777836862 | 24.44° C | 40% | 1024.7 hPa | 0 mm | - | 956 W/m² | - |
| 1777836557 | 24.44° C | 42% | 1024.8 hPa | 0 mm | - | 982 W/m² | - |
| 1777836254 | 24.44° C | 41% | 1024.9 hPa | 0 mm | - | 972 W/m² | - |
| 1777835950 | 24.44° C | 41% | 1024.8 hPa | 0 mm | - | 982 W/m² | - |
| 1777835648 | 25° C | 39% | 1025 hPa | 0 mm | - | 985 W/m² | - |
| 1777835344 | 24.44° C | 43% | 1025 hPa | 0 mm | - | 991 W/m² | - |
| 1777835041 | 24.44° C | 37% | 1025 hPa | 0 mm | - | 992 W/m² | - |
| 1777834738 | 24.44° C | 41% | 1025.1 hPa | 0 mm | - | 998 W/m² | - |
| 1777834434 | 24.44° C | 38% | 1025.1 hPa | 0 mm | - | 1000 W/m² | - |
| 1777834134 | 23.89° C | 39% | 1025.1 hPa | 0 mm | - | 1003 W/m² | - |
| 1777833830 | 24.44° C | 43% | 1025.2 hPa | 0 mm | - | 1005 W/m² | - |
| 1777833526 | 24.44° C | 41% | 1025.1 hPa | 0 mm | - | 1008 W/m² | - |
| 1777833224 | 24.44° C | 38% | 1025.2 hPa | 0 mm | - | 1014 W/m² | - |
| 1777832921 | 24.44° C | 40% | 1025.3 hPa | 0 mm | - | 1017 W/m² | - |
| 1777832620 | 24.44° C | 37% | 1025.3 hPa | 0 mm | - | 1020 W/m² | - |
| 1777832316 | 23.89° C | 36% | 1025.4 hPa | 0 mm | - | 1024 W/m² | - |
* Rain latest hour (hover to see other rain measurements)
** Current wind speed in m/s (hover to see current wind gust speed)